Location: Festilli
(46.4000°N, 11.6667°E)
Time: 06:44:27
(UTC+00:00)

USA 186 - Pass Details

Date: 03 March 2021
Orbit: 261 x 429 km, 96.9° (Epoch: 15 April)

Event Time Altitude Azimuth Distance (km) Brightness Sun altitude
Exits shadow 18:28:20 20° 19° (NNE) 768 2.9 -15.6°
Drops below altitude 10° 18:29:22 10° 5° (N) 1,168 4.0 -15.8°
Sets 18:31:22 0° 356° (N) 2,029 5.4 -16.1°
